Flag for Greece Weather past 2 weeks in Patras, Greece

Now
54 °F

Rain. Broken clouds.


Feels Like: 49 °F
Forecast: 43 / 55 °F
Wind: 18 mph from South

Location: Araxos Airport

Current Time: Dec 28, 2014 at 3:49:24 PM

Latest Report: Dec 28, 2014 at 3:20 PM


Visibility: 2 mi

Pressure: 29.71 "Hg

Humidity: 82%

Dew point: 48 °F

Location of PatrasLocation

Historic Weather in Patras — Graph

°F

Patras temperature yesterday

Maximum temperature yesterday: 54 °F (at 9:50 AM)
Minimum temperature yesterday: 36 °F (at 11:50 PM)
Average temperature yesterday: 49 °F

Past Weeks' High & Low Weather Summary

 TemperatureHumidityPressure
High63 °F (Dec 13, 2:20 PM)100% (Dec 13, 9:50 PM)30.36 "Hg (Dec 13, 9:50 PM)
Low34 °F (Dec 23, 8:20 AM)35% (Dec 27, 3:50 PM)29.71 "Hg (Dec 28, 2:50 PM)
Average51 °F87%30.15 "Hg
* Reported Dec 13 2:20 PM — Dec 28 2:50 PM, Patras, Weather by CustomWeather, © 2014

Note: Actual official high and low records may vary slightly from our data, if they occured in-between our weather recording intervals... More about our weather records

Advertising

Patras weather history for previous 24 hours

 ConditionsComfort  
Time TempWeatherWind HumidityBarometerVisibility
2:50 PM
Dec 28
54 °FRain. Broken clouds.16 mph77%29.71 "HgN/A
2:20 PM54 °FRain. Broken clouds.18 mph77%29.74 "HgN/A
1:50 PM54 °FBroken clouds.13 mph72%29.77 "HgN/A
1:20 PM54 °FLight rain. Broken clouds.18 mph67%29.77 "HgN/A
12:50 PM55 °FCloudy.13 mph63%29.80 "HgN/A
12:20 PM54 °FCloudy.9 mph67%29.83 "HgN/A
11:50 AM55 °FMostly cloudy.9 mph63%29.83 "HgN/A
11:20 AM54 °FMore clouds than sun.7 mph63%29.86 "HgN/A
10:50 AM52 °FCloudy.6 mph67%29.89 "HgN/A
10:20 AM52 °FMore clouds than sun.5 mph72%29.89 "HgN/A
9:50 AM46 °FMore clouds than sun.No wind87%29.89 "HgN/A
9:20 AM45 °FBroken clouds.No wind93%29.89 "HgN/A
8:50 AM41 °FBroken clouds.No wind93%29.89 "HgN/A
8:20 AM39 °FScattered clouds.No wind93%29.89 "HgN/A
7:50 AM43 °FScattered clouds.No wind81%29.89 "HgN/A
7:20 AM43 °FPassing clouds.No wind87%29.92 "HgN/A
6:50 AM41 °FPassing clouds.3 mph93%29.92 "HgN/A
6:20 AM39 °FPassing clouds.No wind100%29.92 "HgN/A
5:50 AM41 °FPassing clouds.No wind93%29.92 "HgN/A
5:20 AM41 °FPassing clouds.No wind93%29.92 "HgN/A
4:50 AM41 °FPassing clouds.No wind93%29.92 "HgN/A
3:50 AM41 °FPassing clouds.No wind93%29.95 "HgN/A
2:50 AM39 °FPassing clouds.No wind93%29.95 "HgN/A
1:50 AM36 °FPassing clouds.No wind100%29.95 "HgN/A
12:50 AM36 °FPassing clouds.No wind100%29.95 "HgN/A
11:50 PM
Dec 27
36 °FPassing clouds.No wind100%29.95 "HgN/A
10:50 PM37 °FPassing clouds.No wind93%29.95 "HgN/A
9:50 PM37 °FPassing clouds.3 mph93%29.95 "HgN/A
8:50 PM39 °FPassing clouds.3 mph87%29.95 "HgN/A
7:50 PM43 °FPassing clouds.5 mph76%29.92 "HgN/A
7:20 PM45 °FPassing clouds.6 mph71%29.92 "HgN/A
6:50 PM46 °FPassing clouds.3 mph62%29.92 "HgN/A
6:20 PM48 °FPassing clouds.3 mph54%29.89 "HgN/A
5:50 PM48 °FPassing clouds.5 mph54%29.89 "HgN/A
5:20 PM50 °FPassing clouds.5 mph50%29.89 "HgN/A
4:50 PM52 °FPassing clouds.5 mph47%29.89 "HgN/A
4:20 PM52 °FPassing clouds.6 mph41%29.89 "HgN/A
3:50 PM54 °FPassing clouds.6 mph35%29.89 "HgN/A
3:20 PM54 °FPassing clouds.5 mph41%29.89 "HgN/A
Weather by CustomWeather, © 2014

See weather overviewHow to use our weather pages